Location: Gugi
(45.4667°N, 11.1000°E)
Time: 03:21:45
(UTC+00:00)

Cosmos 1072 Rocket - Pass Details

Date: 17 November 2019
Orbit: 948 x 1009 km, 82.9° (Epoch: 12 December)

Event Time Altitude Azimuth Distance (km) Brightness Sun altitude
Rises 16:57:09 0° 352° (N) 3,634 7.4 -12.9°
Reaches altitude 10° 16:59:39 10° 353° (N) 2,688 6.7 -13.3°
Maximum altitude 17:05:48 82° 81° (E) 973 4.4 -14.3°
Drops below altitude 10° 17:12:00 10° 170° (S) 2,701 6.8 -15.4°
Sets 17:14:30 0° 171° (S) 3,652 7.5 -15.8°
